Regional Weather Roundup
Issued by NWS Goodland, KS

Home | Current Version | Previous Version | Graphics & Text | Print | Product List | Glossary On
Versions: 1 2 3 4 5 6 7 8 9 10 11 12 13 14 15 16 17 18 19 20 21 22 23 24 25 26 27 28 29 30 31 32 33 34 35 36 37 38 39 40 41 42 43 44 45 46 47 48 49 50
000
ASUS43 KGLD 302159
RWRGLD

GOODLAND FORECAST AREA HOURLY WEATHER ROUNDUP
NATIONAL WEATHER SERVICE GOODLAND KS
400 PM MDT TUE AUG 30 2016

...OFFICIAL OBSERVATIONS...

CITY           SKY/WX    TMP DP  RH WIND       PRES   REMARKS
GOODLAND KS    CLOUDY    75  63  66 E9        30.20F
HILL CITY KS   CLOUDY    78  65  63 SE5       30.17S
IMPERIAL NEB   CLOUDY    74  62  66 SE7       30.22F
MCCOOK NEB     CLOUDY    76  65  68 E7        30.19F
AKRON CO       MOSUNNY   70  53  54 NE13      30.25F
BURLINGTON CO  PTSUNNY   78  56  46 SE15      30.23F
LIMON CO       CLOUDY    72  51  47 SE14      30.28S
$$

...UNOFFICIAL OBSERVATIONS...

CITY           SKY/WX    TMP DP  RH WIND       PRES   REMARKS
COLBY KS       MOSUNNY   77  66  69 SE7       30.21F
LENORA KS        N/A     76  32  20 MISG        N/A
NORTON KS      MOSUNNY   75  63  64 NE7       30.18
OBERLIN KS     FAIR      73  64  73 NE6       30.23F
SHARON SPRINGS   N/A     77  62  60 S7          N/A
TRENTON NEB      N/A     74  32  21 MISG        N/A
YUMA CO          N/A     73  61  65 E12         N/A
$$




USA.gov is the U.S. government's official web portal to all federal, state and local government web resources and services.